When you browse on this site, cookies collect data to enhance your experience and personalize the content and advertising you see.
Visit our Privacy Policy to learn more. By continuing to use the site, you agree to this use of cookies and data.
  • In Czech Republic
  • List of Countries
  • For 7 days
  • Water Temperature
  • Satellite Maps
  • Weather Map
  • Weather Widgets
  • user-avatar
    Login

    Hourly Weather Etchmiadzin

    Today, 23 May, Thursday

    Time Temperature Precipitation Wind Pressure Humidity
    00:00 +18°C° 0 mm 1 mps 688 mmHg 59%
    01:00 +18°C° 0 mm 1 mps 687 mmHg 60%
    02:00 +16°C° 0 mm 1 mps 687 mmHg 60%
    03:00 +16°C° 0 mm 1 mps 687 mmHg 60%
    04:00 +16°C° 0 mm 1 mps 687 mmHg 59%
    05:00 +18°C° 0 mm 1 mps 687 mmHg 58%
    06:00 +19°C° 0 mm 1 mps 687 mmHg 56%
    07:00 +19°C° 0 mm 2 mps 687 mmHg 52%
    08:00 +20°C° 0 mm 2 mps 686 mmHg 47%
    09:00 +23°C° 0 mm 2 mps 686 mmHg 43%
    10:00 +24°C° 0 mm 3 mps 686 mmHg 41%
    11:00 +25°C° 0 mm 3 mps 686 mmHg 39%
    12:00 +26°C° 0 mm 3 mps 686 mmHg 36%
    13:00 +26°C° 0.1 mm 3 mps 686 mmHg 37%
    14:00 +26°C° 0.1 mm 2 mps 686 mmHg 37%
    15:00 +26°C° 0.1 mm 2 mps 685 mmHg 38%
    16:00 +26°C° 0.3 mm 2 mps 685 mmHg 40%
    17:00 +26°C° 0.3 mm 1 mps 685 mmHg 41%
    18:00 +26°C° 0.3 mm 1 mps 685 mmHg 43%
    19:00 +24°C° 0.3 mm 1 mps 686 mmHg 47%
    20:00 +22°C° 0.3 mm 1 mps 686 mmHg 52%
    21:00 +21°C° 0.3 mm 1 mps 686 mmHg 56%
    22:00 +20°C° 0.2 mm 1 mps 686 mmHg 59%
    23:00 +20°C° 0.2 mm 1 mps 686 mmHg 61%

    Tomorrow, 24 May, Friday

    Time Temperature Precipitation Wind Pressure Humidity
    00:00 +19°C° 0.2 mm 1 mps 686 mmHg 63%
    01:00 +19°C° 0.1 mm 1 mps 686 mmHg 63%
    02:00 +19°C° 0.1 mm 1 mps 686 mmHg 64%
    03:00 +18°C° 0.1 mm 1 mps 686 mmHg 64%
    04:00 +19°C° 0 mm 1 mps 686 mmHg 63%
    05:00 +18°C° 0 mm 2 mps 686 mmHg 62%
    06:00 +19°C° 0 mm 2 mps 686 mmHg 61%
    07:00 +20°C° 0 mm 2 mps 686 mmHg 56%
    08:00 +23°C° 0 mm 2 mps 686 mmHg 50%
    09:00 +24°C° 0 mm 3 mps 686 mmHg 44%
    10:00 +26°C° 0 mm 3 mps 686 mmHg 41%
    11:00 +27°C° 0 mm 3 mps 686 mmHg 39%
    12:00 +28°C° 0 mm 3 mps 686 mmHg 36%
    13:00 +29°C° 0.2 mm 3 mps 686 mmHg 34%
    14:00 +29°C° 0.2 mm 3 mps 686 mmHg 32%
    15:00 +30°C° 0.2 mm 3 mps 686 mmHg 30%
    16:00 +29°C° 0.3 mm 3 mps 686 mmHg 33%
    17:00 +28°C° 0.3 mm 3 mps 686 mmHg 36%
    18:00 +28°C° 0.3 mm 3 mps 686 mmHg 39%
    19:00 +26°C° 0.1 mm 3 mps 687 mmHg 43%
    20:00 +24°C° 0.1 mm 3 mps 687 mmHg 47%
    21:00 +21°C° 0.1 mm 3 mps 687 mmHg 51%
    22:00 +21°C° 0.1 mm 3 mps 687 mmHg 51%
    23:00 +20°C° 0.1 mm 3 mps 687 mmHg 51%

    Day after tomorrow, 25 May, Saturday

    Time Temperature Precipitation Wind Pressure Humidity
    00:00 +20°C° 0.1 mm 3 mps 687 mmHg 50%
    01:00 +20°C° 0 mm 2 mps 687 mmHg 49%
    02:00 +20°C° 0 mm 2 mps 687 mmHg 48%
    03:00 +19°C° 0 mm 2 mps 687 mmHg 47%
    04:00 +20°C° 0 mm 2 mps 688 mmHg 46%
    05:00 +20°C° 0 mm 2 mps 688 mmHg 45%
    06:00 +21°C° 0 mm 2 mps 688 mmHg 44%
    07:00 +24°C° 0 mm 3 mps 688 mmHg 39%
    08:00 +26°C° 0 mm 3 mps 688 mmHg 34%
    09:00 +28°C° 0 mm 3 mps 688 mmHg 30%
    10:00 +29°C° 0 mm 4 mps 688 mmHg 28%
    11:00 +32°C° 0 mm 4 mps 688 mmHg 26%
    12:00 +33°C° 0 mm 5 mps 687 mmHg 24%
    13:00 +33°C° 0.1 mm 5 mps 687 mmHg 24%
    14:00 +33°C° 0.1 mm 5 mps 687 mmHg 24%
    15:00 +33°C° 0.1 mm 5 mps 686 mmHg 24%
    16:00 +32°C° 0 mm 5 mps 686 mmHg 26%
    17:00 +30°C° 0 mm 4 mps 686 mmHg 28%
    18:00 +29°C° 0 mm 4 mps 686 mmHg 30%
    19:00 +28°C° 0.2 mm 4 mps 686 mmHg 32%
    20:00 +26°C° 0.2 mm 3 mps 686 mmHg 35%
    21:00 +24°C° 0.2 mm 3 mps 686 mmHg 37%
    22:00 +23°C° 0 mm 2 mps 686 mmHg 38%
    23:00 +21°C° 0 mm 2 mps 686 mmHg 39%

    26 May, Sunday

    Time Temperature Precipitation Wind Pressure Humidity
    00:00 +21°C° 0 mm 2 mps 686 mmHg 40%
    01:00 +20°C° 0 mm 2 mps 686 mmHg 39%
    02:00 +20°C° 0 mm 2 mps 686 mmHg 39%
    03:00 +20°C° 0 mm 2 mps 685 mmHg 39%
    04:00 +20°C° 0 mm 2 mps 686 mmHg 40%
    05:00 +20°C° 0 mm 2 mps 686 mmHg 41%
    06:00 +21°C° 0 mm 2 mps 686 mmHg 42%
    07:00 +24°C° 0 mm 2 mps 686 mmHg 38%
    08:00 +26°C° 0 mm 2 mps 686 mmHg 34%
    09:00 +28°C° 0 mm 2 mps 686 mmHg 30%
    10:00 +29°C° 0 mm 3 mps 686 mmHg 30%
    11:00 +30°C° 0 mm 4 mps 686 mmHg 29%
    12:00 +32°C° 0 mm 4 mps 686 mmHg 28%
    13:00 +32°C° 0 mm 4 mps 686 mmHg 26%
    14:00 +32°C° 0 mm 4 mps 685 mmHg 24%
    15:00 +33°C° 0 mm 3 mps 685 mmHg 22%
    16:00 +31°C° 0 mm 3 mps 685 mmHg 24%
    17:00 +30°C° 0 mm 3 mps 686 mmHg 26%
    18:00 +29°C° 0 mm 3 mps 686 mmHg 28%
    19:00 +27°C° 0 mm 3 mps 686 mmHg 32%
    20:00 +25°C° 0 mm 4 mps 687 mmHg 36%
    21:00 +22°C° 0 mm 4 mps 687 mmHg 40%
    22:00 +21°C° 0 mm 4 mps 687 mmHg 45%
    23:00 +20°C° 0 mm 3 mps 687 mmHg 50%

    27 May, Monday

    Time Temperature Precipitation Wind Pressure Humidity
    00:00 +19°C° 0 mm 3 mps 687 mmHg 56%
    01:00 +19°C° 0 mm 3 mps 687 mmHg 57%
    02:00 +18°C° 0 mm 3 mps 687 mmHg 58%
    03:00 +18°C° 0 mm 2 mps 687 mmHg 59%
    04:00 +18°C° 0 mm 2 mps 688 mmHg 58%
    05:00 +19°C° 0 mm 2 mps 688 mmHg 56%
    06:00 +20°C° 0 mm 1 mps 688 mmHg 55%
    07:00 +22°C° 0 mm 1 mps 689 mmHg 48%
    08:00 +24°C° 0 mm 1 mps 689 mmHg 41%
    09:00 +25°C° 0 mm 2 mps 689 mmHg 34%
    10:00 +27°C° 0 mm 2 mps 689 mmHg 31%
    11:00 +28°C° 0 mm 2 mps 689 mmHg 28%
    12:00 +29°C° 0 mm 2 mps 689 mmHg 25%
    13:00 +29°C° 0 mm 2 mps 689 mmHg 24%
    14:00 +30°C° 0 mm 2 mps 688 mmHg 24%
    15:00 +30°C° 0 mm 2 mps 688 mmHg 23%
    16:00 +30°C° 0 mm 2 mps 689 mmHg 25%
    17:00 +30°C° 0 mm 2 mps 689 mmHg 27%
    18:00 +29°C° 0 mm 1 mps 689 mmHg 29%
    19:00 +27°C° 0 mm 2 mps 689 mmHg 35%
    20:00 +25°C° 0 mm 3 mps 690 mmHg 40%
    21:00 +22°C° 0 mm 4 mps 690 mmHg 45%
    22:00 +21°C° 0 mm 4 mps 690 mmHg 47%
    23:00 +21°C° 0 mm 3 mps 690 mmHg 49%

    28 May, Tuesday

    Time Temperature Precipitation Wind Pressure Humidity
    00:00 +20°C° 0 mm 3 mps 690 mmHg 52%
    01:00 +19°C° 0 mm 3 mps 690 mmHg 52%
    02:00 +19°C° 0 mm 3 mps 690 mmHg 53%
    03:00 +18°C° 0 mm 2 mps 690 mmHg 53%
    04:00 +19°C° 0 mm 2 mps 691 mmHg 53%
    05:00 +19°C° 0 mm 2 mps 691 mmHg 53%
    06:00 +20°C° 0 mm 2 mps 691 mmHg 53%
    07:00 +23°C° 0 mm 2 mps 692 mmHg 46%
    08:00 +25°C° 0 mm 1 mps 692 mmHg 40%
    09:00 +26°C° 0 mm 1 mps 692 mmHg 34%
    10:00 +28°C° 0 mm 1 mps 691 mmHg 31%
    11:00 +29°C° 0 mm 2 mps 691 mmHg 28%
    12:00 +30°C° 0 mm 2 mps 691 mmHg 25%
    13:00 +31°C° 0 mm 2 mps 691 mmHg 24%
    14:00 +31°C° 0 mm 2 mps 691 mmHg 23%
    15:00 +32°C° 0 mm 1 mps 690 mmHg 22%
    16:00 +31°C° 0.1 mm 2 mps 690 mmHg 25%
    17:00 +30°C° 0.1 mm 2 mps 690 mmHg 28%
    18:00 +30°C° 0.1 mm 2 mps 690 mmHg 31%
    19:00 +28°C° 0.1 mm 2 mps 691 mmHg 39%
    20:00 +25°C° 0.1 mm 3 mps 691 mmHg 48%
    21:00 +22°C° 0.1 mm 3 mps 691 mmHg 56%
    22:00 +22°C° 0 mm 3 mps 691 mmHg 59%
    23:00 +21°C° 0 mm 3 mps 691 mmHg 62%
    Show more